RH
7 7 7 7 8 8 7 6 5 4 4 8 12 14 16 22 32 38 35 38 68 61 52 24 32 25 27 28 29 31 48 49 35 28 28 18 20 19 20 20 22 24 26 26 34
10 9 9 8 8 8 8 9 8 7 6 7 13 25 20 32 33 39 22 50 65 57 48 28 28 27 28 30 33 42 52 40 29 21 23 22 20 21 21 20 24 29 27 30 35
37 33 25 19 15 12 10 9 9 9 8 8 15 36 29 46 62 39 40 43 65 57 55 28 26 26 27 29 36 39 51 36 28 22 20 23 22 18 21 23 22 25 33 32 34
91 89 97 98 93 82 43 26 15 11 11 10 15 31 36 60 53 36 34 28 36 28 27 28 25 26 30 34 32 39 34 32 28 26 22 26 24 27 24 21 22 23 27 31 34
83 96 92 90 91 90 94 82 52 36 16 12 14 48 87 89 64 34 48 41 42 46 40 28 28 28 34 37 32 39 35 28 27 28 25 25 28 31 28 23 23 26 25 28 29
98 94 100 94 93 93 92 88 91 74 48 17 17 76 100 92 25 48 55 50 58 54 49 32 31 32 33 36 38 33 32 31 28 28 27 30 32 29 26 24 24 26 27 27 31
94 94 93 90 84 78 59 60 65 75 62 53 21 84 98 54 32 49 48 51 51 36 34 30 32 37 39 40 38 35 38 42 38 34 35 27 49 50 27 27 31 29 31 28 30
93 93 91 82 61 52 56 44 41 42 48 61 41 93 98 28 29 52 40 46 29 27 26 34 38 39 41 41 42 44 46 62 46 42 41 36 61 48 36 41 36 38 37 34 31
93 87 82 62 51 48 56 42 26 21 39 51 98 95 83 48 52 48 46 50 34 27 31 39 42 47 45 58 67 59 74 69 55 44 54 51 63 38 37 41 41 37 34 37 38
91 79 72 63 52 46 58 65 46 59 59 53 94 96 74 60 54 55 58 48 29 38 41 43 47 64 68 77 93 76 69 61 62 52 52 59 56 47 33 28 30 31 31 33 39
90 80 72 46 44 56 72 63 82 69 76 82 84 82 54 58 51 54 54 34 33 42 61 48 71 87 72 68 64 61 60 57 49 45 49 64 59 54 41 35 37 39 43 46 46
95 69 50 43 35 60 69 77 92 98 92 74 67 56 79 61 50 42 50 40 41 59 54 61 81 63 57 56 63 65 67 58 48 37 40 46 55 51 44 46 55 64 59 59 55
76 57 43 42 30 78 64 89 94 82 90 68 52 54 39 64 62 36 42 37 43 59 61 78 60 49 54 54 51 55 60 57 58 36 35 36 60 68 58 56 67 65 60 66 64
57 50 43 56 70 80 89 83 84 91 97 64 60 52 52 42 43 42 35 34 48 51 61 60 49 38 42 48 51 60 38 46 42 51 74 46 84 61 65 67 56 67 63 61 59
68 39 48 74 90 88 95 90 90 96 96 40 44 46 45 47 50 45 36 37 59 51 49 55 45 48 46 43 41 52 36 38 39 59 63 63 82 67 71 74 58 66 59 54 40
51 38 68 80 82 84 90 86 83 96 93 55 51 47 58 50 39 42 44 44 50 57 46 47 36 36 36 33 36 37 42 50 63 73 94 77 78 74 78 73 57 68 61 45 38
39 44 65 85 90 88 86 81 97 92 50 76 94 92 70 75 72 55 72 82 85 96 99 68 57 36 33 42 33 55 75 96 93 91 95 78 82 77 59 61 67 74 53 40 33
36 46 72 90 91 92 85 92 98 68 92 77 79 84 70 77 92 64 61 72 63 95 98 92 96 48 36 46 54 54 72 92 93 98 95 59 83 70 68 62 48 41 37 38 32
34 36 72 88 83 98 84 98 88 98 73 56 58 84 96 84 96 82 68 79 93 96 96 93 61 35 36 33 43 52 73 58 84 83 91 74 58 51 53 48 58 61 54 28 57
40 62 73 93 82 98 96 77 79 65 61 58 79 76 87 92 99 99 100 100 98 91 81 92 80 44 37 33 34 52 50 73 88 100 100 75 68 79 54 55 72 79 49 35 63
45 81 63 69 81 97 98 93 82 66 57 66 75 88 84 98 98 98 98 81 76 77 73 82 84 71 49 54 58 58 80 76 78 90 98 97 80 79 65 72 72 71 36 45 69
67 97 59 69 82 99 98 84 84 60 58 76 73 80 88 91 98 95 95 88 83 74 86 78 86 95 73 58 46 47 64 72 92 87 95 93 84 85 79 74 51 45 54 69 85
79 88 62 72 95 97 87 77 85 74 69 80 82 72 76 92 95 95 88 95 90 87 93 77 92 98 78 75 61 55 48 75 86 95 95 93 83 69 70 82 64 55 72 87 100
96 96 66 79 78 99 94 88 93 66 68 74 74 70 77 82 84 88 90 96 98 88 76 68 89 86 93 86 87 83 89 72 81 98 91 92 71 46 47 65 71 78 84 100 99
92 84 81 96 87 90 95 99 96 96 82 79 75 88 93 95 94 89 95 97 92 85 91 86 95 94 87 85 84 87 87 88 89 80 86 82 91 78 76 83 77 81 99 99 100
98 88 87 92 86 94 92 84 96 91 97 92 94 92 94 98 97 97 93 86 86 87 97 94 89 86 87 69 82 86 77 85 79 70 76 75 75 60 62 59 89 98 99 100 100
89 88 91 84 92 96 92 97 90 95 99 92 93 98 96 95 81 84 87 87 84 87 86 78 99 97 99 79 86 84 87 88 83 83 76 91 73 58 44 62 86 93 100 100 100
Wind_Speed
20 20 21 21 22 23 23 23 21 20 20 19 20 21 19 17 19 17 22 14 12 13 10 9 6 8 10 8 8 3 3 3 4 2 3 3 2 4 4 6 5 4 6 4 23
23 23 23 22 23 23 23 23 23 23 22 23 20 21 18 17 19 25 16 13 12 13 13 13 9 9 6 7 8 4 4 9 5 1 2 3 3 3 3 3 5 12 9 12 20
28 28 28 28 28 28 28 27 27 25 24 23 23 20 18 14 16 6 2 3 13 17 15 13 9 12 13 8 9 6 5 5 1 4 5 2 4 1 5 1 4 6 22 19 21
24 25 26 27 28 30 29 30 30 27 27 25 25 23 18 10 6 5 2 5 9 11 16 15 13 8 5 7 14 4 9 12 11 3 2 4 4 4 5 9 5 4 18 22 21
28 27 27 30 30 28 30 31 30 29 26 25 24 22 20 9 20 13 11 9 11 11 12 14 13 11 5 5 11 6 6 14 14 6 5 4 6 7 9 16 12 2 14 21 18
27 28 27 27 29 29 29 29 31 30 26 24 22 17 17 14 11 9 15 17 14 14 17 17 9 12 6 7 5 4 1 4 5 7 8 6 6 6 7 16 21 13 16 16 17
28 28 29 29 29 32 35 35 35 33 25 24 20 13 19 37 12 12 16 15 13 13 15 15 14 6 3 2 7 5 4 6 5 10 6 8 6 9 24 20 12 14 14 18 16
28 29 30 31 33 36 37 36 35 35 28 25 16 14 17 21 12 19 17 11 12 15 12 10 15 8 3 2 5 2 2 1 6 7 8 11 7 7 15 21 16 12 13 12 15
28 29 31 33 31 37 36 34 36 31 26 23 14 14 14 13 24 23 24 16 16 14 11 10 9 5 3 4 3 3 4 7 6 3 6 5 5 3 7 13 12 9 10 15 15
28 28 32 32 31 38 32 29 25 14 8 8 17 9 18 15 12 21 24 19 18 15 11 5 5 4 2 4 6 7 4 3 5 5 5 6 6 6 5 9 13 15 15 17 18
29 30 32 34 33 29 26 30 24 8 15 10 14 18 18 6 8 13 20 23 21 16 6 7 4 7 12 11 6 4 2 4 4 3 4 7 7 10 12 13 11 6 10 15 21
30 31 33 34 33 18 19 21 16 19 15 28 30 32 37 24 8 12 22 19 11 5 5 3 9 9 10 10 11 10 6 3 4 1 2 5 10 9 8 2 11 14 13 17 19
32 33 34 34 33 9 26 10 22 23 8 19 26 22 34 30 24 17 26 21 6 7 7 6 5 15 12 7 5 5 5 3 6 2 3 2 7 4 3 11 13 9 11 12 14
33 34 35 35 24 25 18 19 16 19 4 7 5 4 12 23 15 24 30 26 5 14 7 9 11 4 5 4 5 4 1 5 4 4 3 3 4 5 4 3 5 10 10 10 9
33 35 32 25 22 20 20 19 18 8 4 4 2 2 3 12 1 23 29 26 8 6 6 6 5 8 5 3 5 4 6 5 3 3 3 3 3 6 6 3 5 6 11 9 6
34 35 25 22 20 18 21 16 12 2 5 5 5 6 2 10 5 3 13 4 3 2 6 3 3 4 3 4 5 8 5 6 5 3 2 7 6 4 4 6 6 5 11 9 4
34 33 24 14 18 19 17 7 1 2 7 9 6 10 7 6 3 3 5 6 6 4 3 4 1 3 4 6 4 5 6 2 1 1 5 4 3 7 2 3 7 9 13 6 3
34 31 10 11 23 14 11 4 3 5 4 2 4 7 4 7 2 3 7 5 3 5 3 5 4 4 3 4 6 5 6 5 6 3 2 4 4 5 4 12 20 16 10 2 4
33 28 9 13 23 10 5 3 4 4 6 7 6 4 1 2 2 3 4 6 3 4 4 4 2 2 6 4 5 4 1 4 5 2 3 4 0 4 4 4 6 7 2 2 4
33 22 7 18 24 5 2 3 4 8 10 5 3 4 4 3 4 6 6 2 5 3 5 1 5 2 2 3 4 4 4 3 3 2 3 4 4 4 6 7 5 2 4 4 6
23 11 11 21 8 2 1 4 5 11 9 5 2 3 3 4 10 3 4 5 4 1 6 3 3 2 3 3 6 1 2 3 4 3 4 1 4 5 7 7 7 6 3 6 8
14 4 14 18 6 2 2 10 10 7 7 4 4 4 3 4 5 5 5 5 10 2 3 4 4 3 5 1 2 3 6 5 4 5 2 3 5 1 6 7 7 4 3 5 8
18 7 11 15 4 4 6 7 4 7 4 3 4 1 1 1 3 4 6 7 12 5 2 2 2 1 1 4 4 1 3 4 5 3 3 4 4 4 3 3 7 5 4 5 7
7 4 6 6 12 3 8 4 7 11 2 7 3 5 4 4 2 3 3 4 5 5 10 4 2 4 4 5 3 1 3 3 5 3 3 5 2 4 6 7 6 5 3 5 6
3 3 2 4 6 9 9 2 11 7 8 10 6 7 2 3 4 3 3 3 3 5 4 4 2 4 5 7 3 4 4 3 4 5 5 4 4 5 6 6 3 2 2 4 6
5 4 5 9 13 5 3 4 9 8 3 5 4 7 6 4 2 2 5 3 3 3 2 3 0 2 4 3 5 5 8 8 7 9 8 9 16 4 4 8 6 3 2 5 8
4 6 6 6 5 3 3 6 12 15 1 2 7 1 3 4 9 8 10 7 6 6 3 3 2 3 4 4 4 5 6 5 5 3 6 9 6 3 3 5 5 1 3 6 8
Wind_Direction
346 344 343 341 338 336 335 333 332 330 329 327 324 318 314 305 294 279 271 279 259 256 250 238 232 203 190 212 205 178 97 217 245 261 296 360 60 65 82 96 81 91 148 170 170
336 334 331 328 325 325 324 323 323 323 323 322 322 321 317 306 299 289 286 241 242 233 228 227 212 185 207 209 191 151 169 209 217 73 115 27 72 135 97 110 121 104 136 155 171
336 332 328 324 321 319 317 317 318 318 318 318 317 317 316 307 310 273 19 174 218 227 242 194 204 213 222 231 199 192 204 239 137 96 79 26 5 43 113 293 147 179 162 177 179
338 333 332 332 327 322 315 313 311 313 316 317 317 313 311 291 274 194 150 143 173 185 188 193 209 198 199 218 211 223 230 245 284 274 172 143 310 314 231 210 190 331 197 187 192
335 334 328 322 320 316 316 314 310 307 308 311 314 316 310 264 250 244 243 202 183 195 202 185 204 216 210 213 235 224 233 239 254 255 208 213 236 242 268 245 243 157 192 195 203
339 334 336 329 326 324 316 309 309 307 302 301 306 309 286 262 281 258 233 218 220 230 220 197 211 227 252 227 182 318 169 289 283 282 271 201 236 228 245 253 243 224 187 200 205
340 339 335 330 325 323 319 314 303 301 304 295 294 277 258 254 257 255 233 228 217 201 194 195 226 197 350 327 335 350 337 333 283 261 233 218 277 230 252 238 221 211 187 201 212
340 342 340 339 335 331 324 314 306 303 293 296 279 254 249 268 240 223 219 214 191 192 206 199 217 221 169 328 357 333 31 316 270 233 222 151 262 266 297 204 203 197 206 205 200
341 342 339 337 340 340 333 323 317 308 293 281 265 226 260 278 213 212 216 217 203 191 195 188 180 171 153 114 5 256 228 214 298 185 142 155 242 286 106 161 177 202 205 191 180
342 339 337 338 337 341 335 342 351 346 327 257 227 223 258 245 240 213 209 202 177 166 145 155 158 142 111 131 207 211 211 258 232 230 149 185 249 237 219 179 193 199 186 186 177
341 338 337 339 337 344 347 352 355 348 336 289 288 236 309 247 205 195 197 188 177 164 155 195 147 191 208 211 215 218 202 229 270 245 125 204 223 248 246 219 218 203 173 156 162
341 340 338 337 338 335 342 348 344 322 300 285 272 266 259 252 288 192 184 190 173 167 185 158 221 214 212 219 228 232 228 227 311 129 100 243 248 248 255 180 167 149 144 151 153
339 340 339 337 334 325 323 350 332 332 282 292 265 249 238 246 242 207 191 195 169 179 197 200 222 214 214 229 179 185 169 198 218 180 274 293 307 316 42 106 113 120 154 161 170
338 340 340 334 337 325 338 313 322 327 301 278 237 269 222 227 255 226 196 189 203 204 213 241 229 212 139 179 130 186 154 186 153 78 216 74 274 305 165 131 115 125 133 149 166
338 341 339 344 331 330 322 329 329 315 1 287 329 287 319 180 174 195 191 193 189 185 157 246 139 153 154 180 180 183 98 110 94 102 55 319 78 266 120 196 166 150 140 141 142
339 341 340 350 341 335 318 315 320 48 266 309 1 326 343 169 23 18 164 127 221 250 222 221 60 94 109 57 125 143 89 48 49 90 359 227 160 265 194 194 138 148 155 159 173
341 341 343 349 334 333 334 337 83 205 324 351 352 335 308 153 330 112 135 185 149 115 199 174 259 30 120 88 20 80 79 19 337 259 227 279 134 243 217 108 151 151 153 163 270
341 341 9 349 345 323 342 46 80 266 10 316 302 329 316 22 153 266 143 163 201 92 143 150 190 191 185 153 175 178 149 157 198 197 260 348 234 267 53 84 123 131 135 166 309
341 345 353 359 352 343 349 42 222 347 273 327 331 352 197 305 319 150 208 166 39 144 160 132 100 39 55 26 114 196 142 175 101 245 67 215 135 0 116 94 118 125 119 341 332
343 344 350 344 341 327 43 260 289 338 325 345 2 42 325 311 237 180 158 126 126 109 245 203 99 34 13 34 29 142 172 72 0 116 274 276 202 222 185 183 174 228 270 330 327
348 330 341 341 343 17 316 266 299 292 345 339 317 299 290 351 292 105 40 54 63 2 72 92 84 299 73 210 181 38 14 57 119 165 175 257 269 213 203 173 180 229 301 312 315
349 331 335 352 21 352 301 304 284 296 354 341 349 354 347 335 329 43 72 64 8 17 59 39 116 141 206 318 328 206 191 150 131 258 206 141 275 314 153 176 172 206 307 298 306
333 293 337 360 19 339 307 300 299 330 324 339 334 17 312 1 9 28 64 32 23 32 122 66 81 78 291 359 360 227 217 128 109 83 210 146 258 149 178 275 237 251 306 320 334
333 322 325 356 356 323 326 319 322 324 28 346 310 336 11 356 66 97 88 42 25 21 57 79 79 161 187 202 149 312 300 187 135 131 207 223 208 199 222 237 223 230 314 342 332
316 301 337 312 330 317 306 336 312 349 356 2 359 4 53 24 18 97 79 117 46 10 39 85 163 151 240 246 225 227 219 192 175 185 172 228 172 230 230 241 198 182 331 320 329
320 343 326 286 298 310 359 315 342 326 284 330 10 353 46 42 99 159 137 150 163 11 63 22 242 54 303 324 193 242 245 230 246 233 253 266 281 265 135 128 148 154 322 329 328
302 315 304 288 310 6 355 325 321 320 246 4 330 331 62 43 23 70 76 72 137 133 107 141 107 47 279 19 10 335 236 221 215 224 195 239 252 183 163 164 156 228 306 314 322